Flag for Switzerland Weather past 2 weeks in La-Chaux-de-Fonds, Neuchâtel, Switzerland

Now
68 °F

Scattered clouds.


Feels Like: 68 °F
Forecast: 54 / 69 °F
Wind: 5 mph from North

Location: Les Eplatures

Current Time: Aug 1, 2014 at 3:29:34 PM

Latest Report: Aug 1, 2014 at 2:50 PM


Visibility: N/A

Pressure: 29.92 "Hg

Humidity: 69%

Dew point: 57 °F

Location of La-Chaux-de-FondsLocation

Historic Weather in La-Chaux-de-Fonds — Graph

°F

La-Chaux-de-Fonds temperature yesterday

Maximum temperature yesterday: 68 °F (at 4:50 PM)
Minimum temperature yesterday: 52 °F (at 4:50 AM)
Average temperature yesterday: 60 °F

Past Weeks' High & Low Weather Summary

 TemperatureHumidityPressure
High84 °F (Jul 19, 2:50 PM)100% (Jul 20, 7:20 AM)30.24 "Hg (Jul 20, 7:20 AM)
Low48 °F (Aug 1, 4:20 AM)26% (Jul 18, 12:20 PM)29.89 "Hg (Jul 29, 3:20 AM)
Average60 °F83%30.03 "Hg
* Reported Jul 17 2:20 PM — Aug 1 2:20 PM, La-Chaux-de-Fonds, Weather by CustomWeather, © 2014

Note: Actual official high and low records may vary slightly from our data, if they occured in-between our weather recording intervals... More about our weather records

Advertising

La-Chaux-de-Fonds weather history for previous 24 hours

 ConditionsComfort  
Time TempWeatherWind HumidityBarometerVisibility
2:20 PM
Aug 1
70 °FScattered clouds.5 mph64%29.95 "HgN/A
1:50 PM70 °FScattered clouds.5 mph60%29.95 "HgN/A
1:20 PM70 °FPartly sunny.3 mph60%29.95 "HgN/A
12:50 PM70 °FPartly sunny.2 mph64%29.95 "HgN/A
12:20 PM70 °FPassing clouds.2 mph60%29.95 "HgN/A
11:50 AM68 °FScattered clouds.1 mph64%29.95 "HgN/A
11:20 AM68 °FScattered clouds.1 mph69%29.95 "HgN/A
10:50 AM68 °FPassing clouds.1 mph69%29.95 "HgN/A
10:20 AM66 °FPassing clouds.2 mph68%29.95 "HgN/A
9:50 AM64 °FPassing clouds.1 mph73%29.95 "HgN/A
9:20 AM61 °FSunny.1 mph88%29.95 "Hg10 mi
8:50 AM57 °FSunny.1 mph100%29.95 "Hg10 mi
8:20 AM57 °FSunny.1 mph100%29.95 "Hg10 mi
7:50 AM54 °FClear.No wind100%29.95 "Hg10 mi
7:20 AM50 °FCool.1 mph100%29.95 "Hg4 mi
6:50 AM48 °FFog.No wind100%29.95 "Hg0 mi
6:20 AM48 °FFog.No wind100%29.98 "Hg1 mi
5:50 AM48 °FClear.No wind100%29.98 "Hg10 mi
5:20 AM48 °FFog.No wind100%29.98 "Hg2 mi
4:50 AM48 °FClear.No wind100%29.98 "Hg5 mi
4:20 AM48 °FFog.No wind100%29.98 "Hg2 mi
3:50 AM50 °FCool.No wind100%29.98 "Hg3 mi
3:20 AM50 °FCool.No wind100%30.01 "Hg5 mi
2:50 AM52 °FCool.1 mph100%30.01 "Hg5 mi
2:20 AM52 °FClear.No wind100%30.01 "Hg10 mi
1:50 AM52 °FCool.No wind100%30.01 "Hg6 mi
1:20 AM54 °FCool.No wind100%30.01 "Hg3 mi
12:50 AM54 °FCool.No wind100%30.01 "Hg4 mi
12:20 AM54 °FCool.No wind100%30.01 "Hg4 mi
11:50 PM
Jul 31
55 °FFog.No wind100%30.04 "Hg2 mi
11:20 PM55 °FClear.No wind100%30.04 "Hg10 mi
10:50 PM57 °FSunny.1 mph94%30.04 "Hg10 mi
10:20 PM59 °FSunny.2 mph94%30.04 "Hg10 mi
9:50 PM59 °FSunny.2 mph94%30.04 "Hg10 mi
9:20 PM61 °FPassing clouds.5 mph94%30.01 "HgN/A
8:50 PM63 °FPassing clouds.3 mph88%30.01 "HgN/A
8:20 PM63 °FPassing clouds.5 mph88%30.01 "HgN/A
7:50 PM66 °FScattered clouds.5 mph78%30.01 "HgN/A
7:20 PM64 °FPassing clouds.5 mph78%30.01 "HgN/A
6:50 PM68 °FBroken clouds.6 mph73%30.01 "HgN/A
6:20 PM68 °FPartly sunny.8 mph69%30.01 "HgN/A
5:50 PM66 °FBroken clouds.7 mph78%30.01 "HgN/A
5:20 PM68 °FBroken clouds.7 mph73%30.01 "HgN/A
4:50 PM68 °FBroken clouds.7 mph73%30.04 "HgN/A
4:20 PM66 °FPartly sunny.7 mph73%30.04 "HgN/A
3:50 PM66 °FPartly sunny.7 mph73%30.04 "HgN/A
3:20 PM66 °FScattered clouds.7 mph73%30.04 "HgN/A
Weather by CustomWeather, © 2014

See weather overviewHow to use our weather pages